TimePDT,TemperatureF,Dew PointF,Humidity,Sea Level PressureIn,VisibilityMPH,Wind Direction,Wind SpeedMPH,Gust SpeedMPH,PrecipitationIn,Events,Conditions,WindDirDegrees,DateUTC
12:56 AM,36.0,33.1,89,29.76,10.0,SSW,6.9,-,0.01,,Overcast,210,2012-10-23 07:56:00
1:56 AM,37.0,33.1,86,29.76,10.0,West,4.6,-,N/A,,Overcast,260,2012-10-23 08:56:00
2:56 AM,36.0,30.9,82,29.78,10.0,SE,3.5,-,N/A,,Overcast,130,2012-10-23 09:56:00
3:56 AM,34.0,28.9,82,29.78,10.0,Calm,Calm,-,N/A,,Clear,0,2012-10-23 10:56:00
4:56 AM,34.0,28.0,79,29.78,10.0,Calm,Calm,-,N/A,,Mostly Cloudy,0,2012-10-23 11:56:00
5:56 AM,34.0,28.9,82,29.81,10.0,Calm,Calm,-,N/A,,Scattered Clouds,0,2012-10-23 12:56:00
8:56 AM,34.0,28.9,82,29.93,6.0,West,15.0,21.9,0.00,Snow,Light Snow,280,2012-10-23 15:56:00
9:56 AM,33.1,30.0,89,29.97,4.0,SSW,5.8,-,0.00,Snow,Light Snow,210,2012-10-23 16:56:00
10:13 AM,33.8,30.2,87,29.95,4.0,Calm,Calm,-,0.00,Snow,Light Snow,0,2012-10-23 17:13:00
10:53 AM,33.8,28.4,81,29.95,5.0,WSW,9.2,-,0.00,Snow,Light Snow,240,2012-10-23 17:53:00
10:56 AM,35.1,30.0,82,29.97,5.0,SW,8.1,-,0.00,Snow,Light Snow,220,2012-10-23 17:56:00
11:15 AM,35.6,30.2,81,29.96,6.0,SSW,5.8,-,0.00,Snow,Light Snow,200,2012-10-23 18:15:00
11:46 AM,35.6,30.2,81,29.96,10.0,SSW,5.8,-,0.00,,Overcast,200,2012-10-23 18:46:00
11:56 AM,36.0,28.9,76,29.99,10.0,South,6.9,-,0.00,,Overcast,170,2012-10-23 18:56:00
12:45 PM,37.4,30.2,75,29.95,10.0,SW,5.8,-,0.00,,Overcast,230,2012-10-23 19:45:00
12:56 PM,37.9,30.9,76,29.97,8.0,NW,4.6,-,0.00,Snow,Light Snow,310,2012-10-23 19:56:00
1:15 PM,37.4,30.2,75,29.95,10.0,NW,4.6,-,0.00,,Overcast,320,2012-10-23 20:15:00
1:56 PM,37.9,30.0,73,29.96,10.0,West,5.8,-,0.00,,Overcast,280,2012-10-23 20:56:00
2:56 PM,37.9,30.0,73,29.97,10.0,Variable,6.9,-,0.00,,Overcast,0,2012-10-23 21:56:00
3:26 PM,37.4,30.2,75,29.94,10.0,Calm,Calm,-,0.00,,Overcast,0,2012-10-23 22:26:00
3:34 PM,39.2,30.2,70,29.95,10.0,ENE,3.5,-,0.00,,Overcast,70,2012-10-23 22:34:00
3:56 PM,39.0,28.9,67,29.97,10.0,Calm,Calm,-,0.00,,Overcast,0,2012-10-23 22:56:00
4:56 PM,39.0,30.0,70,29.97,10.0,SE,3.5,-,N/A,,Overcast,130,2012-10-23 23:56:00
5:14 PM,37.4,28.4,70,29.95,10.0,Calm,Calm,-,N/A,,Scattered Clouds,0,2012-10-24 00:14:00
5:56 PM,36.0,28.9,76,29.98,10.0,ESE,4.6,-,N/A,,Partly Cloudy,120,2012-10-24 00:56:00
6:56 PM,35.1,28.9,78,29.98,10.0,Calm,Calm,-,N/A,,Mostly Cloudy,0,2012-10-24 01:56:00
7:56 PM,33.1,28.9,85,29.99,10.0,Calm,Calm,-,N/A,,Overcast,0,2012-10-24 02:56:00
8:56 PM,33.1,28.9,85,29.99,10.0,Calm,Calm,-,N/A,,Mostly Cloudy,0,2012-10-24 03:56:00
9:56 PM,32.0,28.9,88,30.00,10.0,Calm,Calm,-,N/A,,Overcast,0,2012-10-24 04:56:00
10:56 PM,32.0,28.9,88,29.99,10.0,Calm,Calm,-,N/A,,Mostly Cloudy,0,2012-10-24 05:56:00
11:56 PM,32.0,28.0,85,29.99,10.0,Calm,Calm,-,N/A,,Scattered Clouds,0,2012-10-24 06:56:00